GSAT-10 (GAGAN/PRN 128)

Last updated on Tue Jul 08 2025 00:03:23 GMT+0000 (Coordinated Universal Time)

1 38779U 12051B 25188.64945973 -.00000148 00000+0 00000+0 0 9996 2 38779 0.0547 266.1479 0008599 192.9640 143.5504 1.00271698 46645
UTC large
Height (km)
Speed (km/s)
/
Latitude / Longitude
Inclination (degrees)
Orbital Period (minutes)
Azimuth
Elevation
Range (km)
Doppler Factor

Next 0 passes for location: London (51.5072 / 0.1276)

Sorry there are no passes over London.